TimeEAT,TemperatureF,Dew PointF,Humidity,Sea Level PressureIn,VisibilityMPH,Wind Direction,Wind SpeedMPH,Gust SpeedMPH,PrecipitationIn,Events,Conditions,WindDirDegrees,DateUTC
1:00 AM,77.0,68.0,74,29.92,-9999.0,South,9.2,-,N/A,,Clear,180,2013-10-14 22:00:00
2:00 AM,77.0,68.0,74,29.92,-9999.0,South,6.9,-,N/A,,Clear,170,2013-10-14 23:00:00
3:00 AM,77,68,67,29.91,19,SSE,4.6,,,,,160,2013-10-15 00:00:00
4:00 AM,75.2,68.0,78,29.92,-9999.0,Calm,Calm,-,N/A,,Clear,0,2013-10-15 01:00:00
5:00 AM,75.2,69.8,83,29.92,-9999.0,SSE,4.6,-,N/A,,Clear,160,2013-10-15 02:00:00
7:00 AM,75.2,69.8,83,29.95,6.2,SSE,6.9,-,N/A,,Mostly Cloudy,160,2013-10-15 04:00:00
8:00 AM,78.8,69.8,74,30.01,6.2,South,9.2,-,N/A,,Mostly Cloudy,190,2013-10-15 05:00:00
9:00 AM,83,68,52,30.01,25,South,16.1,,,,Mostly Cloudy,190,2013-10-15 06:00:00
10:00 AM,86.0,66.2,51,30.01,6.2,South,18.4,-,N/A,,Scattered Clouds,190,2013-10-15 07:00:00
11:00 AM,89.6,66.2,46,29.95,6.2,South,16.1,-,N/A,,Scattered Clouds,180,2013-10-15 08:00:00
1:00 PM,95.0,62.6,34,29.89,6.2,South,13.8,-,N/A,,Partly Cloudy,170,2013-10-15 10:00:00
2:00 PM,95.0,60.8,32,29.86,6.2,South,11.5,-,N/A,,Partly Cloudy,170,2013-10-15 11:00:00
3:00 PM,96,61,22,29.81,25,South,18.4,,,,Scattered Clouds,190,2013-10-15 12:00:00
4:00 PM,95.0,59.0,30,29.83,6.2,SSE,9.2,-,N/A,,Scattered Clouds,160,2013-10-15 13:00:00
5:00 PM,93.2,60.8,34,29.83,6.2,SSE,6.9,-,N/A,,Partly Cloudy,160,2013-10-15 14:00:00
7:00 PM,91.4,62.6,38,29.83,6.2,SSE,9.2,-,N/A,,Partly Cloudy,160,2013-10-15 16:00:00
8:00 PM,89.6,62.6,40,29.86,-9999.0,South,18.4,-,N/A,,Clear,180,2013-10-15 17:00:00
9:00 PM,86,64,37,29.88,19,South,16.1,,,,Scattered Clouds,180,2013-10-15 18:00:00
10:00 PM,82.4,66.2,58,29.92,-9999.0,SSE,11.5,-,N/A,,Clear,160,2013-10-15 19:00:00
11:00 PM,80.6,68.0,65,29.95,-9999.0,SE,4.6,-,N/A,,Clear,140,2013-10-15 20:00:00